Orbital Elements at Epoch 2459200.5 (2020-Dec-17.0) TDB
Reference: JPL 14 (heliocentric ecliptic J2000)
Element | Value | Uncertainty (1-sigma) | Units |
e | .2050873464504575 | 4.7835e-08 | |
a | 2.726083218498075 | 1.6537e-08 | au |
q | 2.166998045013182 | 1.2319e-07 | au |
i | 12.43014206388997 | 3.4642e-06 | deg |
node | 276.2391352585295 | 2.1206e-05 | deg |
peri | 35.65629463824656 | 2.5597e-05 | deg |
M | 67.1089075931533 | 1.2658e-05 | deg |
tp | 2458894.032264429353 (2020-Feb-14.53226443) | 5.6567e-05 | TDB |
period | 1644.019978305968 4.50 | 1.4959e-05 4.096e-08 | d yr |
n | .2189754411445483 | 1.9925e-09 | deg/d |
Q | 3.285168391982968 | 1.9929e-08 | au |
|
| | Orbit Determination Parameters
Additional Information
|